This is the latest recevied weather packets stored in our database for station/object WP3OF-1. If no packets are shown the sender has not sent any weather packets the latest 10 day(s).
| Time | Temp. | Humidity | Pressure | Rain* | Wind** | Luminosity | Snow |
|---|---|---|---|---|---|---|---|
| 1777837235 | 28.33° C | 70% | 1016.5 hPa | 0 mm | - | - | - |
| 1777836932 | 28.33° C | 71% | 1016.8 hPa | 0 mm | - | - | - |
| 1777836627 | 28.33° C | 72% | 1016.7 hPa | 0 mm | - | - | - |
| 1777836324 | 28.33° C | 72% | 1016.6 hPa | 0 mm | - | - | - |
| 1777836020 | 28.33° C | 72% | 1016.6 hPa | 0 mm | - | - | - |
| 1777835717 | 28.33° C | 71% | 1016.8 hPa | 0 mm | - | - | - |
| 1777835413 | 27.78° C | 72% | 1016.7 hPa | 0 mm | - | - | - |
| 1777835110 | 28.33° C | 71% | 1016.7 hPa | 0 mm | - | - | - |
| 1777834808 | 27.78° C | 71% | 1016.7 hPa | 0 mm | - | - | - |
| 1777834504 | 28.89° C | 72% | 1016.8 hPa | 0 mm | - | - | - |
| 1777834203 | 28.33° C | 70% | 1016.9 hPa | 0 mm | - | - | - |
| 1777833900 | 28.89° C | 71% | 1016.8 hPa | 0 mm | - | - | - |
| 1777833596 | 28.33° C | 72% | 1017 hPa | 0 mm | - | - | - |
| 1777833293 | 28.33° C | 73% | 1016.8 hPa | 0 mm | - | - | - |
| 1777832990 | 28.33° C | 69% | 1016.8 hPa | 0 mm | - | - | - |
| 1777832689 | 27.78° C | 71% | 1017 hPa | 0 mm | - | - | - |
| 1777832386 | 27.78° C | 72% | 1017 hPa | 0 mm | - | - | - |
| 1777832083 | 28.33° C | 68% | 1016.9 hPa | 0 mm | - | - | - |
| 1777831779 | 28.33° C | 67% | 1016.8 hPa | 0 mm | - | - | - |
| 1777831478 | 28.33° C | 68% | 1017.1 hPa | 0 mm | - | - | - |
| 1777831174 | 28.33° C | 66% | 1017 hPa | 0 mm | - | - | - |
| 1777830872 | 28.33° C | 69% | 1017.1 hPa | 0 mm | - | - | - |
| 1777830567 | 28.33° C | 68% | 1017.3 hPa | 0 mm | - | - | - |
| 1777830266 | 28.33° C | 70% | 1017.6 hPa | 0 mm | - | - | - |
| 1777829966 | 28.33° C | 71% | 1017.8 hPa | 0 mm | - | - | - |
* Rain latest hour (hover to see other rain measurements)
** Current wind speed in m/s (hover to see current wind gust speed)